Weather History for Cagliari, Italy

Change the Weather History Date:

Saturday, March 23, 2013

  Actual Average Record
Temperature  
Mean Temperature 56 °F -  
Max Temperature 61 °F 64 °F 77 °F (2001)
Min Temperature 50 °F 47 °F 37 °F (2009)
Degree Days  
Heating Degree Days 10    
Growing Degree Days 6 (Base 50)    
Moisture  
Dew Point 52 °F    
Average Humidity 83    
Maximum Humidity 94    
Minimum Humidity 64    
Precipitation  
Precipitation 0.00 in 0.05 in - ()
Sea Level Pressure  
Sea Level Pressure 29.76 in    
Wind  
Wind Speed 10 mph ()    
Max Wind Speed 18 mph    
Max Gust Speed -    
Visibility 5.9 miles    
Events      
Averages and records for this station are not official NWS values.
T = Trace of Precipitation, MM = Missing Value Source: Averaged Metar Reports

Daily Weather History Graph

Daily Weather History Graph

Search for Another Location

Airport:

Trip Planner

Search our weather history database for the weather conditions in past years. The results will help you decide how hot, cold, wet, or windy it might be!

Date:

Astronomy

Mar. 23, 2013 Rise Set
Actual Time 6:22 AM CET 6:38 PM CET
Civil Twilight 5:55 AM CET 7:05 PM CET
Nautical Twilight 5:24 AM CET 7:36 PM CET
Astronomical Twilight 4:52 AM CET 8:08 PM CET
Moon 2:50 PM CET (3/23) 3:47 AM CET (3/23)
Length of Visible Light 13h 09m
Length of Day
12h 16m
Waxing Gibbous, 83% of the Moon is Illuminated
Mar 23
Waxing Gibbous
Mar 27
Full
Apr 3
Last Quarter
Apr 10
New
Apr 18
First Quarter

Hourly Weather History & Observations

Time (CET) Temp. Dew Point Humidity Pressure Visibility Wind Dir Wind Speed Gust Speed Precip Events Conditions
12:15 AM 55.4 °F 51.8 °F 88% 29.86 in 6.2 mi SSE 12.7 mph - N/A   Partly Cloudy
12:45 AM 55.4 °F 51.8 °F 88% 29.86 in 6.2 mi SSE 12.7 mph - N/A   Partly Cloudy
12:55 AM 55.4 °F 51.8 °F 88% 29.86 in 6.2 mi SSE 12.7 mph - N/A   Partly Cloudy
1:00 AM 55 °F 51 °F 84% 29.86 in 6 mi SSE 12.7 mph - -   Scattered Clouds
1:15 AM 55.4 °F 51.8 °F 88% 29.86 in 6.2 mi SE 10.4 mph - N/A   Partly Cloudy
1:45 AM 55.4 °F 51.8 °F 88% 29.86 in 6.2 mi SSE 8.1 mph - N/A   Partly Cloudy
1:55 AM 55.4 °F 51.8 °F 88% 29.86 in 6.2 mi SSE 8.1 mph - N/A   Partly Cloudy
2:15 AM 53.6 °F 51.8 °F 94% 29.83 in 6.2 mi SSE 11.5 mph - N/A   Partly Cloudy
2:45 AM 55.4 °F 51.8 °F 88% 29.83 in 6.2 mi SSE 9.2 mph - N/A   Scattered Clouds
2:55 AM 55.4 °F 51.8 °F 88% 29.83 in 6.2 mi SSE 9.2 mph - N/A   Scattered Clouds
3:15 AM 53.6 °F 50.0 °F 88% 29.83 in 6.2 mi SSE 10.4 mph - N/A   Partly Cloudy
3:45 AM 53.6 °F 50.0 °F 88% 29.83 in 6.2 mi SSE 9.2 mph - N/A   Partly Cloudy
3:55 AM 53.6 °F 50.0 °F 88% 29.83 in 6.2 mi SSE 9.2 mph - N/A   Partly Cloudy
4:00 AM 54 °F 51 °F 85% 29.83 in 6 mi SSE 9.2 mph - -   Scattered Clouds
4:15 AM 53.6 °F 50.0 °F 88% 29.80 in 6.2 mi ESE 5.8 mph - N/A   Partly Cloudy
4:45 AM 53.6 °F 50.0 °F 88% 29.80 in 6.2 mi East 2.3 mph - N/A   Partly Cloudy
5:15 AM 53.6 °F 50.0 °F 88% 29.80 in 6.2 mi East 2.3 mph - N/A   Partly Cloudy
5:45 AM 53.6 °F 50.0 °F 88% 29.80 in 6.2 mi SE 3.5 mph - N/A   Scattered Clouds
5:55 AM 53.6 °F 50.0 °F 88% 29.80 in 6.2 mi SE 3.5 mph - N/A   Scattered Clouds
6:15 AM 51.8 °F 48.2 °F 88% 29.80 in 6.2 mi SSE 4.6 mph - N/A   Scattered Clouds
6:45 AM 51.8 °F 48.2 °F 88% 29.80 in 6.2 mi South 8.1 mph - N/A   Scattered Clouds
6:55 AM 51.8 °F 48.2 °F 88% 29.80 in 6.2 mi South 8.1 mph - N/A   Scattered Clouds
7:00 AM 52 °F 49 °F 85% 29.83 in 6 mi South 8.1 mph - -   Partly Cloudy
7:15 AM 55.4 °F 51.8 °F 88% 29.83 in 6.2 mi South 8.1 mph - N/A   Scattered Clouds
7:45 AM 55.4 °F 51.8 °F 88% 29.83 in 6.2 mi SE 5.8 mph - N/A   Partly Cloudy
7:55 AM 55.4 °F 51.8 °F 88% 29.83 in 6.2 mi SE 5.8 mph - N/A   Partly Cloudy
8:15 AM 57.2 °F 50.0 °F 77% 29.83 in 6.2 mi SSE 8.1 mph - N/A   Partly Cloudy
8:45 AM 57.2 °F 51.8 °F 82% 29.83 in 6.2 mi SSE 6.9 mph - N/A   Partly Cloudy
8:55 AM 57.2 °F 51.8 °F 82% 29.83 in 6.2 mi SSE 6.9 mph - N/A   Partly Cloudy
9:15 AM 59.0 °F 51.8 °F 77% 29.83 in 6.2 mi SSE 10.4 mph - N/A   Scattered Clouds
9:45 AM 59.0 °F 51.8 °F 77% 29.83 in 6.2 mi South 13.8 mph - N/A   Partly Cloudy
9:55 AM 59.0 °F 51.8 °F 77% 29.83 in 6.2 mi South 13.8 mph - N/A   Partly Cloudy
10:00 AM 59 °F 53 °F 73% 29.84 in 6 mi South 13.8 mph - -   Scattered Clouds
10:15 AM 59.0 °F 51.8 °F 77% 29.80 in 6.2 mi SSE 13.8 mph - N/A   Partly Cloudy
10:45 AM 60.8 °F 53.6 °F 77% 29.80 in 6.2 mi SSE 12.7 mph - N/A   Scattered Clouds
10:55 AM 60.8 °F 53.6 °F 77% 29.80 in 6.2 mi SSE 12.7 mph - N/A   Scattered Clouds
11:15 AM 60.8 °F 53.6 °F 77% 29.80 in 6.2 mi South 13.8 mph - N/A   Partly Cloudy
11:45 AM 60.8 °F 53.6 °F 77% 29.80 in 6.2 mi SSE 11.5 mph - N/A   Partly Cloudy
11:55 AM 60.8 °F 53.6 °F 77% 29.80 in 6.2 mi SSE 11.5 mph - N/A   Partly Cloudy
12:15 PM 60.8 °F 53.6 °F 77% 29.80 in 6.2 mi SSE 11.5 mph - N/A   Partly Cloudy
12:45 PM 60.8 °F 53.6 °F 77% 29.77 in 6.2 mi SSE 15.0 mph - N/A   Partly Cloudy
1:00 PM 62 °F 53 °F 64% 29.79 in 9 mi SSE 15.0 mph - -   Scattered Clouds
1:15 PM 60.8 °F 53.6 °F 77% 29.77 in 6.2 mi SSE 15.0 mph - N/A   Partly Cloudy
1:45 PM 60.8 °F 53.6 °F 77% 29.74 in 6.2 mi SSE 17.3 mph - N/A   Partly Cloudy
1:55 PM 60.8 °F 53.6 °F 77% 29.74 in 6.2 mi SSE 17.3 mph - N/A   Partly Cloudy
2:15 PM 60.8 °F 53.6 °F 77% 29.74 in 6.2 mi SSE 17.3 mph - N/A   Partly Cloudy
2:45 PM 60.8 °F 53.6 °F 77% 29.71 in 6.2 mi SSE 17.3 mph - N/A   Partly Cloudy
2:55 PM 60.8 °F 53.6 °F 77% 29.71 in 6.2 mi SSE 17.3 mph - N/A   Partly Cloudy
3:15 PM 60.8 °F 53.6 °F 77% 29.71 in 6.2 mi SSE 16.1 mph - N/A   Partly Cloudy
3:45 PM 60.8 °F 53.6 °F 77% 29.71 in 5.0 mi SSE 15.0 mph - N/A   Partly Cloudy
3:55 PM 60.8 °F 53.6 °F 77% 29.71 in 5.0 mi SSE 15.0 mph - N/A   Partly Cloudy
4:00 PM 60 °F 53 °F 72% 29.72 in 5 mi SSE 15.0 mph - -   Mist
4:15 PM 60.8 °F 53.6 °F 77% 29.68 in 5.0 mi South 16.1 mph - N/A   Partly Cloudy
4:45 PM 59.0 °F 53.6 °F 82% 29.68 in 5.0 mi South 17.3 mph - N/A   Partly Cloudy
4:55 PM 59.0 °F 53.6 °F 82% 29.68 in 5.0 mi South 17.3 mph - N/A   Partly Cloudy
5:15 PM 59.0 °F 53.6 °F 82% 29.68 in 5.0 mi South 18.4 mph - N/A   Partly Cloudy
5:45 PM 59.0 °F 53.6 °F 82% 29.68 in 5.0 mi South 17.3 mph - N/A   Mostly Cloudy
5:55 PM 59.0 °F 53.6 °F 82% 29.68 in 5.0 mi South 17.3 mph - N/A   Mostly Cloudy
6:15 PM 59.0 °F 53.6 °F 82% 29.65 in 5.0 mi South 15.0 mph - N/A   Mostly Cloudy
6:45 PM 59.0 °F 55.4 °F 88% 29.65 in 5.0 mi South 12.7 mph - N/A   Mostly Cloudy
6:55 PM 59.0 °F 55.4 °F 88% 29.65 in 5.0 mi South 12.7 mph - N/A   Mostly Cloudy
7:00 PM 58 °F 55 °F 85% 29.67 in 5 mi South 12.7 mph - -   Mist
7:15 PM 59.0 °F 55.4 °F 88% 29.65 in 5.0 mi South 12.7 mph - N/A   Mostly Cloudy
7:45 PM 57.2 °F 53.6 °F 88% 29.65 in 5.0 mi SSE 8.1 mph - N/A   Mostly Cloudy
7:55 PM 57.2 °F 53.6 °F 88% 29.65 in 5.0 mi SSE 8.1 mph - N/A   Mostly Cloudy
8:15 PM 57.2 °F 53.6 °F 88% 29.65 in 5.6 mi SE 8.1 mph - N/A   Scattered Clouds
8:45 PM 57.2 °F 51.8 °F 82% 29.68 in 5.6 mi East 4.6 mph - N/A   Scattered Clouds
8:55 PM 57.2 °F 51.8 °F 82% 29.68 in 5.6 mi East 4.6 mph - N/A   Scattered Clouds
9:15 PM 57.2 °F 51.8 °F 82% 29.68 in 5.6 mi ENE 3.5 mph - N/A   Scattered Clouds
9:45 PM 55.4 °F 51.8 °F 88% 29.68 in 5.6 mi East 4.6 mph - N/A   Scattered Clouds
9:55 PM 55.4 °F 51.8 °F 88% 29.68 in 5.6 mi East 4.6 mph - N/A   Scattered Clouds
10:00 PM 56 °F 52 °F 82% 29.68 in 6 mi East 4.6 mph - -   Mist
10:15 PM 57.2 °F 51.8 °F 82% 29.65 in 5.6 mi ENE 5.8 mph - N/A   Scattered Clouds
10:45 PM 57.2 °F 51.8 °F 82% 29.62 in 6.2 mi ESE 3.5 mph - N/A   Partly Cloudy
10:55 PM 57.2 °F 51.8 °F 82% 29.62 in 6.2 mi ESE 3.5 mph - N/A   Partly Cloudy
11:15 PM 57.2 °F 51.8 °F 82% 29.62 in 6.2 mi South 3.5 mph - N/A   Partly Cloudy
11:45 PM 55.4 °F 51.8 °F 88% 29.62 in 6.2 mi ENE 2.3 mph - N/A   Scattered Clouds
11:55 PM 55.4 °F 51.8 °F 88% 29.62 in 6.2 mi ENE 2.3 mph - N/A   Scattered Clouds